Lincoln County, Oregon, United States
Lat: 44.65N, Lon: 123.85W
Wx Zone: ORZ004
Local Info
Past Weather Observations for Yesterday

NOTE: This archive is for the closest National Weather Service station to Lincoln County. Information may differ from the station used for current weather conditions.

Click here for Long-term Archive

Time Weather Temperature Dewpoint Humidity Pressure Winds Precip Visibility
23:55
Clear
36°F / 2°C 32°F / 0°C 87% 30.24 in
(1024 mb)
E 3.5 mph
(E 6 kph)
- 10SM
23:35
Clear
37°F / 3°C 32°F / 0°C 81% 30.24 in
(1024 mb)
ENE 4.6 mph
(ENE 7 kph)
- 10SM
23:15
Clear
37°F / 3°C 32°F / 0°C 81% 30.24 in
(1024 mb)
E 9.2 mph
(E 15 kph)
- 10SM
22:55
Clear
37°F / 3°C 32°F / 0°C 81% 30.24 in
(1024 mb)
E 9.2 mph
(E 15 kph)
- 10SM
22:35
Clear
36°F / 2°C 32°F / 0°C 87% 30.24 in
(1024 mb)
ENE 5.8 mph
(ENE 9 kph)
- 10SM
22:15
Clear
36°F / 2°C 32°F / 0°C 87% 30.21 in
(1023 mb)
ENE 4.6 mph
(ENE 7 kph)
- 10SM
21:55
Clear
37°F / 3°C 32°F / 0°C 81% 30.21 in
(1023 mb)
E 5.8 mph
(E 9 kph)
- 10SM
21:35
Clear
36°F / 2°C 32°F / 0°C 87% 30.21 in
(1023 mb)
ENE 5.8 mph
(ENE 9 kph)
- 10SM
21:15
Clear
36°F / 2°C 32°F / 0°C 87% 30.21 in
(1023 mb)
E 3.5 mph
(E 6 kph)
- 10SM
20:55
Clear
36°F / 2°C 32°F / 0°C 87% 30.21 in
(1023 mb)
E 4.6 mph
(E 7 kph)
- 10SM
20:35
Clear
37°F / 3°C 32°F / 0°C 81% 30.21 in
(1023 mb)
ESE 3.5 mph
(ESE 6 kph)
- 10SM
20:15
Clear
37°F / 3°C 34°F / 1°C 87% 30.18 in
(1022 mb)
E 3.5 mph
(E 6 kph)
- 10SM
19:55
Clear
37°F / 3°C 34°F / 1°C 87% 30.18 in
(1022 mb)
E 3.5 mph
(E 6 kph)
- 10SM
19:35
Clear
37°F / 3°C 34°F / 1°C 87% 30.18 in
(1022 mb)
E 4.6 mph
(E 7 kph)
- 10SM
19:15
Clear
41°F / 5°C 34°F / 1°C 76% 30.18 in
(1022 mb)
Calm - 10SM
18:55
Clear
41°F / 5°C 34°F / 1°C 76% 30.18 in
(1022 mb)
ENE 3.5 mph
(ENE 6 kph)
- 10SM
18:35
Clear
46°F / 8°C 28°F / -2°C 50% 30.15 in
(1021 mb)
Calm - 10SM
18:15
Clear
50°F / 10°C 27°F / -3°C 40% 30.15 in
(1021 mb)
Calm - 10SM
17:55
Clear
50°F / 10°C 28°F / -2°C 43% 30.15 in
(1021 mb)
NE 8.1 mph
(NE 13 kph)
- 10SM
17:35
Clear
52°F / 11°C 28°F / -2°C 41% 30.15 in
(1021 mb)
NE 9.2 mph
(NE 15 kph)
- 10SM
17:15
Clear
54°F / 12°C 28°F / -2°C 38% 30.15 in
(1021 mb)
NE 8.1 mph
(NE 13 kph)
- 10SM
16:55
Clear
55°F / 13°C 28°F / -2°C 36% 30.12 in
(1020 mb)
NE 8.1 mph
(NE 13 kph)
- 10SM
16:35
Clear
55°F / 13°C 28°F / -2°C 36% 30.12 in
(1020 mb)
ENE 9.2 mph
(ENE 15 kph)
- 10SM
16:15
Clear
55°F / 13°C 27°F / -3°C 33% 30.12 in
(1020 mb)
NE 9.2 mph
(NE 15 kph)
- 10SM
15:35
Clear
57°F / 14°C 28°F / -2°C 33% 30.12 in
(1020 mb)
NE 13.8 mph
(NE 22 kph)
- 10SM
15:15
Clear
57°F / 14°C 30°F / -1°C 36% 30.12 in
(1020 mb)
NE 9.2 mph
(NE 15 kph)
- 10SM
14:55
Clear
57°F / 14°C 30°F / -1°C 36% 30.12 in
(1020 mb)
ENE 6.9 mph
(ENE 11 kph)
- 10SM
14:35
Clear
57°F / 14°C 32°F / 0°C 39% 30.12 in
(1020 mb)
ENE 11.5 mph
(ENE 19 kph)
- 10SM
14:15
Clear
57°F / 14°C 32°F / 0°C 39% 30.12 in
(1020 mb)
NE 12.7 mph
(NE 20 kph)
- 10SM
13:55
Clear
55°F / 13°C 32°F / 0°C 41% 30.09 in
(1019 mb)
NNE 10.4 mph
(NNE 17 kph)
- 10SM
13:35
Clear
55°F / 13°C 32°F / 0°C 41% 30.09 in
(1019 mb)
E 8.1 mph
(E 13 kph)
- 10SM
13:15
Clear
55°F / 13°C 32°F / 0°C 41% 30.09 in
(1019 mb)
NE 12.7 mph
(NE 20 kph)
- 10SM
12:55
Clear
55°F / 13°C 32°F / 0°C 41% 30.09 in
(1019 mb)
NE 10.4 mph
(NE 17 kph)
- 10SM
12:35
Clear
55°F / 13°C 34°F / 1°C 44% 30.12 in
(1020 mb)
NE 12.7 mph
(NE 20 kph)
- 10SM
12:15
Clear
55°F / 13°C 34°F / 1°C 44% 30.12 in
(1020 mb)
E 9.2 mph
(E 15 kph)
- 10SM
11:55
Clear
55°F / 13°C 34°F / 1°C 44% 30.09 in
(1019 mb)
E 9.2 mph
(E 15 kph)
- 10SM
11:35
Clear
54°F / 12°C 34°F / 1°C 47% 30.09 in
(1019 mb)
NE 11.5 mph
(NE 19 kph)
- 10SM
11:15
Clear
54°F / 12°C 36°F / 2°C 51% 30.09 in
(1019 mb)
ENE 8.1 mph
(ENE 13 kph)
- 10SM
10:55
Clear
54°F / 12°C 34°F / 1°C 47% 30.09 in
(1019 mb)
ENE 8.1 mph
(ENE 13 kph)
- 10SM
10:35
Clear
52°F / 11°C 34°F / 1°C 50% 30.09 in
(1019 mb)
NE 8.1 mph
(NE 13 kph)
- 10SM
10:15
Clear
52°F / 11°C 34°F / 1°C 50% 30.09 in
(1019 mb)
ENE 12.7 mph
(ENE 20 kph)
- 10SM
09:55
Clear
52°F / 11°C 36°F / 2°C 54% 30.06 in
(1018 mb)
ENE 11.5 mph
(ENE 19 kph)
- 10SM
09:35
Clear
50°F / 10°C 36°F / 2°C 58% 30.06 in
(1018 mb)
ENE 9.2 mph
(ENE 15 kph)
- 10SM
09:15
Clear
50°F / 10°C 36°F / 2°C 58% 30.06 in
(1018 mb)
ENE 11.5 mph
(ENE 19 kph)
- 10SM
08:55
Clear
48°F / 9°C 36°F / 2°C 62% 30.04 in
(1017 mb)
ENE 8.1 mph
(ENE 13 kph)
- 10SM
08:35
Clear
46°F / 8°C 37°F / 3°C 71% 30.04 in
(1017 mb)
NE 4.6 mph
(NE 7 kph)
- 10SM
08:15
Clear
45°F / 7°C 36°F / 2°C 71% 30.04 in
(1017 mb)
Calm - 10SM
07:55
Clear
43°F / 6°C 36°F / 2°C 76% 30.04 in
(1017 mb)
N 4.6 mph
(N 7 kph)
- 10SM
07:35
Clear
43°F / 6°C 36°F / 2°C 76% 30.01 in
(1016 mb)
NE 3.5 mph
(NE 6 kph)
- 10SM
07:15
Clear
41°F / 5°C 36°F / 2°C 81% 30.01 in
(1016 mb)
NE 4.6 mph
(NE 7 kph)
- 10SM
06:55
Clear
41°F / 5°C 36°F / 2°C 81% 29.98 in
(1015 mb)
ENE 4.6 mph
(ENE 7 kph)
- 10SM
06:35
Clear
37°F / 3°C 36°F / 2°C 93% 29.98 in
(1015 mb)
Calm - 10SM
06:15
Clear
41°F / 5°C 36°F / 2°C 81% 29.98 in
(1015 mb)
Calm - 10SM
05:55
Clear
41°F / 5°C 36°F / 2°C 81% 29.98 in
(1015 mb)
NNE 4.6 mph
(NNE 7 kph)
- 10SM
05:35
Clear
41°F / 5°C 37°F / 3°C 87% 29.98 in
(1015 mb)
N 3.5 mph
(N 6 kph)
- 10SM
05:15
Clear
41°F / 5°C 37°F / 3°C 87% 29.95 in
(1014 mb)
N 3.5 mph
(N 6 kph)
- 10SM
04:55
Clear
43°F / 6°C 39°F / 4°C 87% 29.95 in
(1014 mb)
Calm - 10SM
04:35
Clear
43°F / 6°C 39°F / 4°C 87% 29.92 in
(1013 mb)
N 4.6 mph
(N 7 kph)
- 10SM
04:15
Clear
43°F / 6°C 41°F / 5°C 93% 29.92 in
(1013 mb)
NE 5.8 mph
(NE 9 kph)
- 10SM
03:55
Clear
41°F / 5°C 41°F / 5°C 100% 29.92 in
(1013 mb)
ENE 8.1 mph
(ENE 13 kph)
- 10SM
03:35
Clear
Fog And Mist
41°F / 5°C 39°F / 4°C 93% 29.89 in
(1012 mb)
Calm - 5SM
03:15
Clear
41°F / 5°C 41°F / 5°C 100% 29.89 in
(1012 mb)
Calm - 7SM
02:55
Clear
43°F / 6°C 43°F / 6°C 100% 29.89 in
(1012 mb)
Calm - 7SM
02:35
Clear
43°F / 6°C 43°F / 6°C 100% 29.89 in
(1012 mb)
Calm - 10SM
02:15
Clear
45°F / 7°C 43°F / 6°C 93% 29.89 in
(1012 mb)
NE 3.5 mph
(NE 6 kph)
- 10SM
01:55
Clear
45°F / 7°C 43°F / 6°C 93% 29.86 in
(1011 mb)
NE 4.6 mph
(NE 7 kph)
- 10SM
01:35
Clear
45°F / 7°C 43°F / 6°C 93% 29.86 in
(1011 mb)
NNE 4.6 mph
(NNE 7 kph)
- 10SM
01:15
Clear
45°F / 7°C 43°F / 6°C 93% 29.86 in
(1011 mb)
NNE 5.8 mph
(NNE 9 kph)
- 10SM
00:55
Clear
45°F / 7°C 43°F / 6°C 93% 29.83 in
(1010 mb)
NE 3.5 mph
(NE 6 kph)
- 10SM
00:35
Clear
45°F / 7°C 43°F / 6°C 93% 29.83 in
(1010 mb)
NE 5.8 mph
(NE 9 kph)
- 10SM
00:15
Clear
45°F / 7°C 43°F / 6°C 93% N/A ENE 6.9 mph
(ENE 11 kph)
- 10SM
Time Weather Temperature Dewpoint Humidity Pressure Winds Precip Visibility


Weather for websites

WeatherForYou.com, LLC is not responsible for any damages or problems caused by this service. Current weather conditions are obtained from the closest station including government and personal stations which may have varying degrees of accuracy. Weather forecasts are derived from the NOAA NDFD. Like all things, this site belongs to Jesus Christ... He just trusts me to maintain it. If you have any questions or comments email webmaster@weatherforyou.com

Copyright © 2015, WeatherForYou.com LLC. All rights reserved.